GFSNW_sfc_thetae_060.txt.gz
Theta_e
310 310 310 309 308 304 306 308 299 313 311 299 302 297 297 297 297 300 298 298 296 293 293 291 291 291 294 298 298 292 296 291 286 288 295 297 293 293 291 284 283 288 285 286
310 309 309 307 306 304 303 303 304 313 310 297 296 299 299 300 296 297 296 295 298 297 293 289 293 294 298 299 297 294 295 289 283 285 290 293 289 291 292 292 292 285 282 286
309 309 308 306 305 305 305 304 298 304 304 304 299 296 296 295 299 296 298 297 298 296 293 295 291 292 296 299 298 301 298 291 286 282 285 290 286 290 292 290 286 287 287 288
308 308 308 307 305 304 307 305 300 302 294 296 297 297 297 295 294 298 298 296 295 293 289 291 291 293 294 297 300 298 296 288 290 290 291 292 290 290 292 290 290 286 288 289
305 306 307 307 305 304 308 299 296 298 295 299 298 297 296 295 296 295 293 292 294 294 291 291 289 293 293 293 297 296 297 288 291 288 291 291 289 292 292 292 292 291 291 290
304 304 305 306 306 305 305 304 304 297 294 297 296 296 295 294 295 296 297 296 294 292 294 299 299 299 299 298 295 294 293 290 288 283 289 289 285 290 291 291 294 293 289 294
303 303 303 304 305 304 304 304 303 295 290 293 293 294 295 295 295 292 296 297 294 298 303 302 301 300 300 299 298 300 291 290 289 285 288 278 289 296 295 292 295 297 297 298
303 303 303 303 304 304 302 304 301 298 290 294 293 296 295 296 297 295 296 298 301 304 300 294 292 295 291 297 298 297 295 291 286 284 283 287 289 294 293 292 292 298 297 299
302 302 302 302 303 304 303 302 306 302 293 293 297 294 295 292 290 293 297 301 304 303 296 292 287 286 290 290 293 299 296 293 287 286 281 279 291 295 298 296 287 300 299 296
301 302 301 302 302 303 302 301 309 303 293 297 299 294 293 296 293 291 294 296 297 302 294 289 288 288 293 288 287 289 290 287 284 285 283 288 296 297 298 285 289 298 299 298
301 301 302 302 302 303 303 301 307 301 295 297 299 300 297 297 295 290 294 293 294 295 291 291 291 289 290 290 293 291 287 288 287 288 284 282 300 297 288 296 300 299 299 300
301 301 302 302 301 302 302 298 306 306 301 298 302 302 303 302 301 296 297 294 293 294 293 295 294 291 293 291 287 296 290 294 290 289 291 301 302 300 300 303 300 299 298 300
300 301 301 301 303 303 303 300 302 301 296 296 298 299 306 309 306 308 294 296 297 297 302 295 294 290 295 289 291 293 297 299 295 294 297 298 301 304 303 303 301 301 301 300
300 301 301 303 304 304 303 299 302 300 297 290 294 306 304 308 310 307 306 303 302 302 300 294 291 289 297 292 295 293 297 299 295 295 299 300 300 302 303 302 302 301 300 300
301 301 302 303 303 303 302 301 302 303 295 290 292 299 304 309 307 306 306 302 300 300 294 291 289 294 294 296 297 295 300 298 293 292 300 300 299 303 303 300 298 299 299 299
301 302 302 302 302 302 300 296 304 305 302 292 286 300 300 304 306 303 301 301 300 299 295 294 295 297 294 290 291 298 301 303 302 297 302 303 303 304 303 300 298 298 299 301
301 301 301 301 302 301 296 297 300 304 303 292 288 293 302 306 305 304 302 303 299 298 294 291 292 294 295 291 289 298 302 302 303 305 303 299 301 299 302 300 299 300 302 305
301 302 302 302 303 301 298 304 305 305 297 295 290 291 296 306 300 299 305 300 298 295 294 295 293 296 295 291 298 300 303 303 303 303 303 302 302 302 301 301 298 297 299 303
302 302 302 302 302 300 303 305 306 305 299 291 290 288 291 305 303 303 303 301 292 298 291 293 295 294 292 298 301 302 303 302 301 302 301 301 300 300 301 298 295 295 297 302
301 301 300 298 297 303 303 299 295 295 295 293 288 295 291 297 297 298 298 299 296 291 295 300 295 295 302 303 303 305 304 304 304 298 297 298 299 300 299 295 295 295 296 302
298 294 294 299 304 298 296 294 294 294 288 291 292 295 292 299 293 294 300 295 296 291 296 296 295 292 297 304 305 305 306 305 304 303 301 301 301 300 299 296 294 295 296 299
294 294 298 300 297 294 289 291 293 293 290 293 290 291 296 299 302 297 299 295 297 290 301 295 292 297 303 305 304 305 305 305 303 302 300 301 301 301 299 296 294 295 295 297
300 296 292 293 292 286 285 285 288 288 291 294 295 293 292 298 301 295 296 291 293 301 294 292 296 302 304 304 304 304 306 305 303 302 302 301 301 301 298 295 295 294 294 294
294 290 284 286 288 289 290 290 290 294 295 296 295 294 292 294 288 291 288 296 297 289 289 291 295 302 303 305 305 304 304 305 302 302 302 300 300 299 299 296 294 293 292 294
290 290 283 287 290 291 292 293 292 294 296 294 293 293 294 292 289 290 289 287 288 291 292 297 300 305 306 305 305 305 305 304 303 303 302 300 300 299 298 298 295 294 292 292
291 289 287 290 289 289 290 290 290 294 294 295 295 292 290 287 289 286 286 286 285 286 291 299 305 305 307 306 305 306 306 307 304 303 303 302 300 299 298 298 296 293 292 291
289 289 293 291 290 289 289 291 292 295 292 289 291 287 287 290 288 287 286 285 285 293 296 301 304 304 307 306 305 306 307 307 306 304 304 302 302 301 297 295 296 294 293 292

GFSNW_sfc_thetae_063.txt.gz
Theta_e
309 309 309 308 306 304 303 301 296 308 307 293 297 292 296 299 298 299 296 296 294 292 292 289 289 289 293 298 296 290 292 287 282 286 291 295 292 288 289 282 280 282 282 282
307 307 307 308 307 304 300 298 300 309 306 290 290 296 296 298 296 296 295 293 295 295 291 287 292 292 297 298 295 292 292 285 279 281 285 291 288 290 290 288 287 282 280 282
306 306 306 306 306 304 301 300 294 299 299 298 293 292 292 293 300 297 296 295 295 293 290 291 289 290 296 297 296 301 297 287 283 279 283 286 285 288 290 286 280 283 285 287
305 305 305 305 305 304 302 301 294 295 288 289 292 294 294 292 294 297 296 293 292 290 286 288 288 290 291 295 298 295 292 285 288 289 290 290 289 288 289 287 287 284 287 288
304 304 305 305 305 304 302 293 292 294 291 294 292 294 293 292 293 292 291 289 292 291 287 289 286 289 290 289 293 291 294 286 289 286 290 289 287 289 290 290 290 289 290 290
304 303 304 305 305 303 299 300 300 294 292 291 289 290 291 292 293 295 295 292 290 289 291 295 295 295 294 293 291 291 291 288 286 282 288 287 282 287 289 291 292 290 287 291
302 302 302 304 304 304 298 299 300 293 287 290 290 291 292 292 292 290 294 294 292 295 300 298 297 295 295 295 295 295 290 288 287 282 284 275 287 293 294 292 293 292 294 296
302 302 302 302 303 304 298 298 297 293 288 291 291 293 292 293 293 291 292 295 298 299 295 290 287 289 289 294 296 295 294 290 283 279 278 285 288 293 291 289 288 296 294 296
302 302 302 302 302 302 298 298 300 298 291 288 295 291 293 288 290 290 293 296 299 296 293 289 283 278 288 288 291 297 294 293 286 282 276 273 287 296 297 294 282 296 295 294
301 302 302 302 302 302 299 297 300 297 291 293 294 289 289 292 291 290 291 293 291 296 290 287 281 283 290 282 283 287 288 287 283 282 280 284 295 297 297 283 283 296 295 295
301 301 302 302 302 302 300 297 300 298 292 293 296 296 292 292 292 289 292 290 291 291 288 288 288 284 287 285 289 286 282 283 283 285 282 278 299 296 288 291 296 296 296 296
301 301 302 302 302 302 302 294 300 301 295 294 299 298 298 297 296 292 294 292 291 292 289 291 288 286 288 286 282 292 283 289 287 287 286 297 300 298 298 299 297 297 297 297
301 301 302 301 302 304 303 298 298 297 293 293 293 293 299 303 301 300 291 293 296 293 296 293 290 284 288 280 284 289 293 295 289 290 295 297 299 301 301 301 300 299 299 299
301 301 302 302 303 304 303 297 299 296 293 287 290 300 296 300 299 301 301 299 299 299 298 293 290 288 293 287 288 288 291 293 291 292 296 298 299 300 301 301 300 299 299 299
301 301 302 302 302 303 301 299 298 299 293 286 288 294 298 299 300 301 303 300 298 296 293 291 288 292 291 291 292 289 294 294 291 290 297 296 296 301 302 300 299 299 298 297
301 301 302 302 301 301 297 292 302 304 301 291 285 295 294 298 301 301 301 301 299 297 294 292 293 296 291 288 287 292 295 301 301 297 300 300 301 302 303 300 300 299 298 298
301 301 301 301 302 300 293 292 298 301 302 292 287 288 297 300 302 301 300 301 299 297 294 291 292 293 294 289 285 292 297 300 302 303 302 298 299 297 301 301 299 297 297 298
301 301 301 301 302 301 296 301 304 303 298 295 286 287 291 301 297 296 302 298 298 296 294 294 292 294 294 288 293 299 301 301 302 301 299 297 299 301 300 300 296 294 294 297
301 301 302 301 299 297 301 306 306 305 298 289 289 285 283 299 297 300 299 300 291 296 291 292 293 291 288 293 295 299 301 299 298 299 298 298 298 299 298 296 293 291 294 296
301 300 298 295 297 304 303 299 295 294 295 293 287 292 287 293 292 292 294 295 289 288 291 296 291 290 298 299 303 302 302 302 300 295 294 296 296 298 295 292 291 293 294 298
295 290 291 295 303 296 293 291 291 291 288 290 290 292 288 296 290 289 295 292 293 289 291 292 291 289 297 302 303 304 302 302 299 298 298 298 298 296 293 292 293 294 294 295
293 293 295 297 295 293 289 289 292 289 286 292 290 293 295 294 300 293 294 291 293 287 298 292 288 292 300 303 303 302 302 301 300 299 299 299 299 298 296 294 292 293 294 295
298 293 291 291 290 284 286 283 287 288 292 294 294 291 294 296 296 293 292 289 288 297 289 289 291 296 301 303 303 303 302 301 301 299 299 299 299 299 296 293 294 293 293 294
292 290 280 285 287 289 289 286 287 290 291 290 291 290 291 294 289 288 286 292 292 287 285 288 292 297 303 304 305 303 300 300 300 300 299 298 297 297 297 294 294 292 291 292
290 290 280 286 289 291 290 291 290 292 292 291 289 290 293 291 288 289 287 286 285 284 283 286 289 300 303 303 304 304 302 300 300 301 299 298 298 296 295 294 293 293 292 292
289 289 286 290 289 288 289 289 289 292 292 292 292 289 288 288 285 285 282 283 281 283 286 292 296 300 302 302 304 305 306 303 301 300 300 299 297 296 295 294 293 293 292 291
288 288 292 290 290 289 290 292 291 294 291 288 290 284 284 288 284 282 285 282 285 288 292 294 296 299 301 303 304 306 305 305 301 300 300 299 298 296 295 293 292 293 293 292

GFSNW_sfc_thetae_069.txt.gz
Theta_e
306 306 305 305 305 303 299 294 291 303 301 291 287 286 291 296 295 298 293 292 291 288 288 286 287 287 290 295 293 287 289 284 280 284 290 291 288 284 283 275 277 279 278 279
305 305 305 305 304 303 298 291 293 303 298 281 283 288 292 294 294 293 293 290 291 291 287 284 289 289 294 294 291 288 289 283 279 280 283 287 286 287 286 284 284 279 277 280
305 305 304 304 304 303 297 292 286 290 290 289 285 285 288 290 297 294 293 291 291 288 285 287 286 287 293 293 292 298 295 286 284 279 281 283 284 287 287 284 281 280 281 284
304 304 304 304 303 303 295 289 286 288 282 284 285 286 288 289 289 292 291 288 289 286 282 284 284 288 288 291 295 291 288 281 284 286 288 288 287 287 288 286 286 281 284 284
303 303 303 304 303 302 295 289 287 288 285 288 286 287 287 287 289 288 287 285 288 287 283 285 284 285 285 285 289 287 287 283 288 284 288 288 286 288 288 289 288 287 287 286
303 303 303 303 303 299 291 293 293 290 286 284 283 283 287 287 288 290 291 288 286 285 287 290 291 291 290 289 287 285 284 282 282 280 286 285 281 286 287 287 289 288 284 288
302 302 303 303 303 299 291 292 290 288 284 285 285 288 289 287 288 286 290 290 285 290 294 292 291 290 290 290 290 291 285 285 287 282 281 274 284 293 294 290 291 291 290 292
302 302 302 302 302 303 293 292 290 288 285 287 286 288 288 287 288 287 288 290 292 292 289 285 283 283 284 288 289 289 289 288 284 280 278 282 285 291 291 287 287 292 292 293
302 302 302 302 302 303 292 291 292 290 287 284 290 287 287 283 281 284 288 291 292 289 286 284 282 279 283 283 288 292 289 291 286 282 278 271 282 294 296 292 283 293 294 292
302 302 302 302 302 302 295 292 293 290 287 289 288 284 284 285 282 281 284 289 287 289 283 278 280 281 288 280 281 285 287 286 282 282 280 282 290 295 297 283 283 294 294 295
302 302 301 302 302 301 297 293 294 291 288 289 290 291 286 285 284 280 284 285 288 283 282 283 284 285 287 284 286 284 280 283 281 284 281 278 297 294 286 290 292 297 298 297
302 301 301 302 302 302 302 292 294 295 291 288 291 292 293 292 291 286 285 283 285 288 279 286 284 281 283 283 281 289 279 284 284 285 282 291 295 295 297 297 298 298 297 297
301 301 301 301 301 302 300 297 295 294 289 287 284 286 291 294 293 295 287 285 289 288 294 290 286 282 287 281 278 283 288 290 284 285 289 291 293 296 299 300 299 300 299 297
301 301 301 302 302 301 301 293 292 294 290 281 284 293 291 295 294 292 293 291 292 294 295 290 288 285 292 286 286 283 288 288 285 286 290 293 295 297 300 300 300 299 300 299
301 301 302 302 301 301 297 294 293 297 287 283 284 291 292 294 293 292 292 291 290 294 292 289 288 291 289 287 286 283 289 287 285 285 292 292 293 298 300 298 299 298 297 296
301 302 302 302 301 301 295 287 296 297 295 288 282 288 290 293 294 296 291 291 292 294 292 291 293 295 291 286 284 288 291 294 295 292 297 297 299 301 301 297 297 297 295 295
301 301 301 301 301 296 291 286 296 299 296 289 284 282 289 293 293 294 295 293 293 294 294 292 292 293 292 287 285 291 293 296 298 299 299 296 296 294 297 297 297 296 294 294
300 301 301 302 302 299 294 295 301 300 292 292 283 282 285 291 288 287 293 294 296 296 294 294 291 293 292 286 291 294 296 297 299 300 299 294 296 296 297 297 294 292 291 292
300 301 303 298 294 291 296 306 303 299 294 288 287 282 280 291 288 289 289 297 291 295 291 292 292 290 286 291 292 293 298 297 297 299 296 296 295 294 295 293 291 289 290 292
300 297 295 293 297 300 302 296 293 293 294 291 285 290 285 289 288 288 289 285 287 286 291 295 289 287 294 291 291 294 295 300 298 294 293 294 294 294 291 290 289 290 290 293
290 287 288 290 297 291 288 285 289 289 287 289 288 289 286 289 287 287 292 284 287 286 290 288 286 286 287 291 292 295 298 300 297 296 296 297 296 293 289 289 291 292 292 293
290 290 293 291 289 287 284 283 289 285 283 288 284 285 287 287 289 290 292 289 291 286 295 286 285 286 289 290 292 295 302 296 296 297 297 297 296 295 292 291 291 290 293 293
295 291 289 286 285 278 283 280 281 279 284 286 285 281 284 286 291 286 288 287 286 292 285 285 285 288 289 291 293 298 303 300 297 297 298 296 296 296 293 291 292 291 292 293
290 288 278 282 283 284 282 281 281 284 284 284 282 281 282 284 285 286 284 288 288 282 279 279 285 287 289 291 293 294 297 302 297 296 296 295 295 295 294 293 293 292 291 292
289 287 276 281 285 284 284 284 284 285 284 283 282 282 284 285 285 285 284 281 277 280 278 283 287 289 289 290 291 292 295 302 297 296 295 294 294 294 293 294 293 293 292 292
289 285 282 283 283 282 284 284 284 286 285 285 285 283 283 280 280 274 278 272 273 277 284 287 289 288 288 289 291 292 296 299 297 296 295 295 293 293 293 294 293 293 292 291
287 284 285 283 283 284 284 285 286 287 284 282 283 279 280 282 276 276 280 275 281 285 287 289 287 287 287 289 291 293 295 298 300 295 295 294 294 294 293 291 292 293 293 292

GFSNW_sfc_thetae_072.txt.gz
Theta_e
305 305 305 305 304 303 299 294 290 301 299 290 285 285 290 296 294 296 293 290 288 287 287 285 285 286 289 294 292 286 287 282 279 283 289 289 285 283 282 275 276 278 277 279
305 305 305 305 304 303 296 291 292 301 297 281 282 286 290 293 293 292 291 290 290 289 286 283 287 289 292 293 290 288 288 282 277 279 281 286 283 285 284 284 282 279 277 279
305 305 305 305 304 303 296 290 285 288 289 288 285 285 286 289 295 293 292 290 290 286 284 286 285 286 292 292 291 297 294 284 282 277 280 281 281 285 287 286 280 280 281 282
304 304 304 304 303 303 294 289 285 286 280 282 284 285 287 287 288 291 289 287 287 285 281 283 283 286 287 290 293 290 287 281 284 286 287 287 286 286 287 285 285 282 284 284
304 303 304 304 303 302 293 287 285 286 283 286 284 286 285 286 288 287 286 284 287 285 282 284 283 285 283 284 288 286 290 282 284 283 287 286 284 286 287 287 287 287 287 286
303 303 303 303 304 298 289 291 291 290 286 283 282 282 286 287 287 289 290 287 285 284 286 288 288 288 289 288 286 285 284 282 282 278 284 284 280 285 286 287 288 288 283 288
303 303 303 303 303 298 292 291 289 287 283 285 283 287 287 286 287 285 288 288 284 289 291 290 289 288 289 289 288 290 283 284 284 280 283 275 284 289 292 289 290 290 290 291
303 303 302 303 303 302 292 291 289 286 283 287 286 287 286 288 287 285 287 289 290 290 287 283 282 282 283 287 288 288 289 286 283 280 277 281 285 288 289 286 287 293 291 292
303 302 302 302 302 302 292 290 290 287 285 283 289 286 286 282 281 283 286 289 290 287 284 283 278 273 282 282 288 292 290 289 284 283 276 271 282 291 294 291 283 292 293 292
303 302 302 302 302 302 293 290 291 289 285 289 287 283 282 285 282 280 282 288 285 287 286 282 279 279 286 279 281 285 285 285 281 282 279 282 289 294 295 281 282 291 293 294
303 302 302 302 302 301 295 291 292 289 285 288 289 290 285 284 283 279 282 281 285 282 279 282 283 284 283 284 286 286 284 283 280 283 280 276 296 294 286 289 293 294 295 296
303 302 302 301 302 301 300 290 293 296 290 288 290 292 292 291 290 284 283 282 282 284 277 282 280 279 279 281 280 289 279 283 279 284 281 291 295 293 295 294 293 296 297 299
303 302 302 301 302 301 300 295 296 294 287 285 283 285 289 293 292 293 282 283 287 285 293 289 288 281 285 281 279 282 286 289 284 284 288 289 291 295 297 298 298 298 299 299
303 302 301 301 302 302 301 293 292 294 290 283 282 292 290 294 293 291 292 288 288 290 292 290 288 285 290 286 283 281 288 287 285 285 288 291 293 296 297 296 298 300 299 298
303 302 301 302 302 302 297 292 292 297 288 282 283 289 291 292 292 291 290 289 286 288 288 289 287 290 289 289 287 285 288 287 285 285 291 291 292 296 298 297 298 297 297 296
303 302 301 301 301 301 292 286 292 293 295 288 283 287 289 291 292 292 288 288 286 289 289 290 292 293 290 286 285 290 293 295 295 292 297 297 297 298 299 295 294 295 296 295
302 301 301 301 301 297 289 285 292 298 297 288 283 282 288 291 291 290 296 291 291 291 291 291 289 291 292 287 285 291 291 292 295 299 299 296 296 293 296 295 296 295 294 294
301 301 301 301 302 300 293 296 300 299 293 290 284 281 284 290 286 285 290 291 294 295 293 294 291 293 291 286 289 289 290 292 295 297 300 299 297 297 296 296 292 290 289 291
299 300 302 298 295 291 294 304 304 298 293 287 286 282 280 289 286 286 288 295 290 295 291 291 291 287 284 287 286 288 291 292 293 296 298 296 295 294 295 290 290 288 289 290
300 297 293 292 294 300 302 295 294 293 293 292 285 289 282 286 284 284 286 288 286 286 291 294 287 287 289 290 290 292 293 298 300 294 292 293 292 293 291 287 290 290 290 291
290 286 287 291 297 293 287 283 288 289 286 289 288 287 282 287 282 284 290 288 285 284 288 287 286 283 286 290 290 292 295 296 300 296 296 296 294 293 289 289 289 289 290 292
290 290 293 292 290 287 283 281 288 286 282 288 285 284 286 285 288 290 289 287 289 285 292 286 282 285 288 289 290 292 293 295 298 297 296 295 295 293 288 288 288 290 291 293
295 291 289 287 286 279 281 279 280 278 281 285 285 282 281 283 289 288 286 286 285 291 283 283 284 286 289 289 290 291 293 295 298 297 297 295 295 295 292 290 290 291 291 292
289 288 280 282 282 283 281 280 280 283 283 283 282 280 280 282 283 286 283 288 286 279 275 278 284 285 288 288 290 290 291 293 295 298 296 295 294 294 292 291 289 291 290 292
288 288 279 281 285 283 283 283 282 285 284 283 282 282 285 285 285 282 277 275 273 276 274 279 285 288 287 287 289 289 291 293 295 297 294 294 293 293 292 291 292 292 292 291
289 286 283 283 282 281 282 282 283 286 284 284 284 282 279 276 277 275 276 268 271 273 280 286 286 285 286 287 289 290 292 293 295 294 294 294 293 293 293 293 293 292 292 290
286 284 285 283 282 282 283 284 285 287 284 282 282 279 280 280 273 276 278 269 276 284 283 284 286 285 286 288 289 290 292 293 295 294 293 293 294 294 293 291 293 293 293 292

GFSNW_sfc_thetae_075.txt.gz
Theta_e
307 306 306 306 305 303 302 302 298 307 306 297 293 292 293 295 295 298 296 294 293 291 291 290 290 289 292 297 297 291 294 291 285 287 293 294 292 290 290 283 281 285 283 283
306 305 305 305 304 303 300 297 298 307 303 292 290 291 291 293 293 295 294 292 293 293 291 288 291 292 296 297 296 293 295 289 283 284 288 291 289 290 290 290 288 283 280 284
306 305 305 305 304 303 301 295 292 295 295 293 290 288 288 290 297 295 294 293 294 291 290 292 290 290 294 295 294 297 296 290 286 281 284 289 286 289 290 289 283 285 285 287
306 304 305 305 304 303 299 294 291 291 287 288 289 289 289 288 289 293 294 291 291 289 287 288 288 290 291 293 295 294 293 286 288 289 290 289 288 288 288 287 289 284 287 288
305 304 304 305 304 301 298 292 291 292 290 290 289 289 288 288 289 290 289 289 290 290 287 289 287 289 289 288 292 292 294 286 288 285 289 289 287 289 290 289 290 289 289 289
305 304 304 304 304 299 294 295 295 294 289 288 287 287 288 289 289 291 292 291 289 288 289 292 293 293 293 292 290 290 290 288 285 281 286 286 283 288 289 290 292 292 288 293
305 303 303 303 303 299 295 294 293 292 285 288 287 288 289 287 288 287 291 292 289 292 295 295 295 293 292 292 291 293 288 287 286 282 284 277 288 294 294 292 293 295 295 296
305 303 303 303 303 301 297 295 293 291 286 288 286 288 288 290 290 288 289 291 294 295 292 287 286 288 289 290 291 290 291 288 283 281 282 286 288 292 292 291 291 296 295 296
306 304 303 302 303 302 298 296 295 293 287 285 289 288 288 286 286 287 288 293 296 294 291 288 281 280 284 285 288 293 289 289 285 284 280 278 288 294 298 296 286 297 296 296
306 304 303 302 302 302 299 297 296 293 286 289 291 287 285 290 288 285 287 289 288 294 288 284 282 282 288 283 283 284 286 285 282 282 280 286 294 295 299 284 288 297 297 297
306 304 303 302 302 302 299 297 297 294 289 289 290 292 289 289 288 284 287 286 288 289 286 285 285 284 286 284 287 285 283 284 284 285 282 280 297 296 289 295 299 298 298 299
307 305 303 302 302 302 300 295 297 296 290 290 295 294 295 293 293 289 289 287 288 291 289 288 287 285 287 285 281 292 285 290 286 288 288 297 299 297 299 299 297 298 298 299
307 305 303 302 302 302 301 297 297 295 290 289 289 290 294 296 296 296 287 290 292 292 297 289 288 284 288 282 284 287 290 293 289 288 291 293 296 298 299 300 299 301 301 300
307 305 303 302 302 302 302 297 297 296 290 284 288 295 294 298 297 295 295 294 295 295 296 291 288 286 292 288 289 287 290 291 289 289 293 293 295 297 299 300 301 301 301 299
307 306 303 302 302 302 301 298 297 298 291 285 287 293 295 296 296 295 295 293 291 291 290 289 287 291 291 291 290 287 292 288 286 285 291 291 292 298 302 300 299 299 298 296
307 306 303 302 301 301 296 289 296 298 296 288 283 294 294 296 296 295 293 291 290 290 289 290 293 296 292 287 286 292 292 294 293 289 294 295 299 302 301 299 298 298 296 294
306 303 301 301 301 299 292 289 296 298 297 289 285 287 294 295 295 297 295 293 292 291 290 291 293 293 293 288 285 289 291 291 293 297 299 296 298 298 300 299 297 294 293 293
302 300 299 301 301 300 295 298 300 300 294 292 285 286 290 295 293 292 299 292 292 291 292 294 291 292 291 286 289 289 290 291 294 296 301 300 299 298 297 296 293 290 290 291
299 298 301 300 297 294 295 302 302 300 294 288 287 283 283 294 293 294 295 296 291 297 291 291 291 288 284 287 286 287 289 289 291 296 299 297 296 295 293 290 291 289 289 290
297 297 295 292 295 300 304 299 293 291 293 292 287 290 286 291 291 290 291 293 289 286 290 292 288 287 289 290 290 290 291 292 294 293 294 295 293 291 290 289 290 290 289 290
293 288 289 292 298 295 291 287 288 289 286 290 289 290 288 293 287 288 291 288 289 286 287 287 287 285 286 289 289 291 292 293 294 296 298 297 295 291 290 290 290 290 290 291
291 292 295 294 291 288 284 284 288 287 285 290 288 290 290 292 294 290 292 288 288 284 291 288 284 287 288 289 289 290 291 292 293 296 298 296 294 291 288 289 288 289 291 292
296 292 289 288 288 283 282 281 285 284 288 291 291 288 289 291 291 289 288 285 284 291 286 284 285 287 289 289 289 289 291 293 294 296 297 296 294 292 290 288 288 290 291 292
290 288 282 284 283 285 287 285 286 288 288 288 288 286 288 289 287 289 284 287 289 282 279 280 286 287 287 289 289 289 289 291 293 296 296 295 294 292 290 290 291 291 289 290
289 289 282 283 289 288 288 288 288 289 289 289 287 290 290 286 286 284 283 281 278 279 278 282 286 287 286 288 288 289 289 291 293 296 295 294 293 293 293 293 292 291 290 289
290 288 284 286 285 285 287 288 289 291 290 290 291 287 283 281 282 280 276 276 275 280 283 286 287 286 287 288 289 290 291 292 292 296 295 294 293 293 293 294 293 291 290 288
287 285 288 287 288 288 289 290 291 292 290 287 288 282 280 285 280 276 280 279 281 284 286 286 287 287 288 289 290 290 291 292 293 297 295 294 295 295 294 291 293 292 292 291